Time,TemperatureF,DewpointF,PressureIn,WindDirection,WindDirectionDegrees,WindSpeedMPH,WindSpeedGustMPH,Humidity,HourlyPrecipIn,Conditions,Clouds,dailyrainin,SoftwareType,DateUTC
2013-01-22 00:00:00,52.0,32.9,29.85,NNW,327,2.0,3.0,48,0.00,,,0.00,Wunderground v.1.15,2013-01-22 05:00:00,
2013-01-22 00:02:00,52.0,32.9,29.85,NNW,327,2.0,3.0,48,0.00,,,0.00,Wunderground v.1.15,2013-01-22 05:02:00,
2013-01-22 00:03:00,52.0,32.9,29.85,NNW,327,2.0,3.0,48,0.00,,,0.00,Wunderground v.1.15,2013-01-22 05:03:00,
2013-01-22 00:08:00,51.9,32.8,29.85,NNW,327,1.0,3.0,48,0.00,,,0.00,Wunderground v.1.15,2013-01-22 05:08:00,
2013-01-22 00:10:00,51.7,32.6,29.85,NW,304,2.0,3.0,48,0.00,,,0.00,Wunderground v.1.15,2013-01-22 05:10:00,
2013-01-22 00:15:00,51.6,32.5,29.86,WNW,302,2.0,4.0,48,0.00,,,0.00,Wunderground v.1.15,2013-01-22 05:15:00,
2013-01-22 00:20:00,51.4,32.9,29.86,WNW,302,2.0,4.0,49,0.00,,,0.00,Wunderground v.1.15,2013-01-22 05:20:00,
2013-01-22 00:25:00,51.3,32.8,29.86,NW,304,2.0,3.0,49,0.00,,,0.00,Wunderground v.1.15,2013-01-22 05:25:00,
2013-01-22 00:31:00,51.0,32.5,29.86,NW,304,1.0,3.0,49,0.00,,,0.00,Wunderground v.1.15,2013-01-22 05:31:00,
2013-01-22 00:36:00,50.8,32.8,29.86,NW,304,0.0,3.0,50,0.00,,,0.00,Wunderground v.1.15,2013-01-22 05:36:00,
2013-01-22 00:41:00,50.8,32.8,29.86,NW,304,0.0,3.0,50,0.00,,,0.00,Wunderground v.1.15,2013-01-22 05:41:00,
2013-01-22 00:46:00,50.5,32.5,29.86,NW,304,1.0,3.0,50,0.00,,,0.00,Wunderground v.1.15,2013-01-22 05:46:00,
2013-01-22 00:51:00,50.4,32.4,29.86,NW,304,1.0,3.0,50,0.00,,,0.00,Wunderground v.1.15,2013-01-22 05:51:00,
2013-01-22 00:56:00,50.1,32.7,29.86,NW,304,1.0,3.0,51,0.00,,,0.00,Wunderground v.1.15,2013-01-22 05:56:00,
2013-01-22 01:01:00,49.9,33.0,29.85,NW,304,0.0,3.0,52,0.00,,,0.00,Wunderground v.1.15,2013-01-22 06:01:00,
2013-01-22 01:06:00,49.6,32.7,29.85,NW,304,0.0,3.0,52,0.00,,,0.00,Wunderground v.1.15,2013-01-22 06:06:00,
2013-01-22 01:12:00,49.4,32.5,29.85,NW,304,0.0,3.0,52,0.00,,,0.00,Wunderground v.1.15,2013-01-22 06:12:00,
2013-01-22 01:17:00,49.2,32.3,29.86,NW,304,0.0,3.0,52,0.00,,,0.00,Wunderground v.1.15,2013-01-22 06:17:00,
2013-01-22 01:23:00,48.9,33.0,29.86,NW,304,0.0,3.0,54,0.00,,,0.00,Wunderground v.1.15,2013-01-22 06:23:00,
2013-01-22 01:28:00,48.8,32.9,29.86,NW,304,0.0,3.0,54,0.00,,,0.00,Wunderground v.1.15,2013-01-22 06:28:00,
2013-01-22 01:33:00,48.5,33.1,29.86,NW,304,0.0,3.0,55,0.00,,,0.00,Wunderground v.1.15,2013-01-22 06:33:00,
2013-01-22 01:38:00,48.2,32.8,29.86,NW,304,0.0,3.0,55,0.00,,,0.00,Wunderground v.1.15,2013-01-22 06:38:00,
2013-01-22 01:44:00,47.9,32.9,29.86,NW,304,0.0,3.0,56,0.00,,,0.00,Wunderground v.1.15,2013-01-22 06:44:00,
2013-01-22 01:49:00,47.7,32.8,29.86,NW,304,0.0,3.0,56,0.00,,,0.00,Wunderground v.1.15,2013-01-22 06:49:00,
2013-01-22 01:55:00,47.6,33.1,29.86,NW,304,0.0,3.0,57,0.00,,,0.00,Wunderground v.1.15,2013-01-22 06:55:00,
2013-01-22 02:00:00,47.4,32.9,29.86,NW,304,0.0,3.0,57,0.00,,,0.00,Wunderground v.1.15,2013-01-22 07:00:00,
2013-01-22 02:05:00,47.1,33.1,29.86,NW,304,0.0,3.0,58,0.00,,,0.00,Wunderground v.1.15,2013-01-22 07:05:00,
2013-01-22 02:10:00,47.1,32.6,29.86,NW,304,0.0,3.0,57,0.00,,,0.00,Wunderground v.1.15,2013-01-22 07:10:00,
2013-01-22 02:15:00,47.1,32.6,29.87,NW,304,1.0,3.0,57,0.00,,,0.00,Wunderground v.1.15,2013-01-22 07:15:00,
2013-01-22 02:20:00,47.1,32.2,29.87,NW,304,1.0,3.0,56,0.00,,,0.00,Wunderground v.1.15,2013-01-22 07:20:00,
2013-01-22 02:25:00,47.1,32.2,29.87,NW,304,1.0,3.0,56,0.00,,,0.00,Wunderground v.1.15,2013-01-22 07:25:00,
2013-01-22 02:30:00,47.1,31.3,29.88,NW,304,1.0,3.0,54,0.00,,,0.00,Wunderground v.1.15,2013-01-22 07:30:00,
2013-01-22 02:36:00,47.3,30.5,29.88,NW,304,1.0,3.0,52,0.00,,,0.00,Wunderground v.1.15,2013-01-22 07:36:00,
2013-01-22 02:41:00,47.3,30.5,29.88,NW,304,1.0,3.0,52,0.00,,,0.00,Wunderground v.1.15,2013-01-22 07:41:00,
2013-01-22 02:46:00,47.1,30.4,29.88,NW,304,0.0,3.0,52,0.00,,,0.00,Wunderground v.1.15,2013-01-22 07:46:00,
2013-01-22 02:52:00,47.0,29.8,29.88,NW,304,1.0,1.0,51,0.00,,,0.00,Wunderground v.1.15,2013-01-22 07:52:00,
2013-01-22 02:57:00,46.8,29.6,29.88,NW,304,1.0,3.0,51,0.00,,,0.00,Wunderground v.1.15,2013-01-22 07:57:00,
2013-01-22 03:02:00,46.7,29.5,29.88,NW,304,1.0,1.0,51,0.00,,,0.00,Wunderground v.1.15,2013-01-22 08:02:00,
2013-01-22 03:07:00,46.5,29.8,29.88,NW,304,0.0,3.0,52,0.00,,,0.00,Wunderground v.1.15,2013-01-22 08:07:00,
2013-01-22 03:13:00,46.2,29.5,29.89,NW,304,1.0,2.0,52,0.00,,,0.00,Wunderground v.1.15,2013-01-22 08:13:00,
2013-01-22 03:18:00,46.2,29.5,29.89,NW,304,1.0,3.0,52,0.00,,,0.00,Wunderground v.1.15,2013-01-22 08:18:00,
2013-01-22 03:23:00,46.0,30.3,29.89,NW,304,0.0,3.0,54,0.00,,,0.00,Wunderground v.1.15,2013-01-22 08:23:00,
2013-01-22 03:28:00,45.7,30.0,29.89,NW,304,0.0,3.0,54,0.00,,,0.00,Wunderground v.1.15,2013-01-22 08:28:00,
2013-01-22 03:33:00,45.4,30.2,29.89,NW,304,0.0,3.0,55,0.00,,,0.00,Wunderground v.1.15,2013-01-22 08:33:00,
2013-01-22 03:38:00,45.1,30.3,29.89,NW,304,0.0,3.0,56,0.00,,,0.00,Wunderground v.1.15,2013-01-22 08:38:00,
2013-01-22 03:44:00,44.8,30.5,29.89,NW,304,0.0,3.0,57,0.00,,,0.00,Wunderground v.1.15,2013-01-22 08:44:00,
2013-01-22 03:49:00,44.6,30.7,29.89,NW,304,0.0,3.0,58,0.00,,,0.00,Wunderground v.1.15,2013-01-22 08:49:00,
2013-01-22 03:54:00,44.3,30.9,29.89,NW,304,0.0,3.0,59,0.00,,,0.00,Wunderground v.1.15,2013-01-22 08:54:00,
2013-01-22 03:59:00,44.2,31.2,29.89,NNW,331,1.0,3.0,60,0.00,,,0.00,Wunderground v.1.15,2013-01-22 08:59:00,
2013-01-22 04:04:00,44.3,30.4,29.89,NNW,331,1.0,3.0,58,0.00,,,0.00,Wunderground v.1.15,2013-01-22 09:04:00,
2013-01-22 04:09:00,44.5,30.6,29.89,NNW,331,1.0,3.0,58,0.00,,,0.00,Wunderground v.1.15,2013-01-22 09:09:00,
2013-01-22 04:14:00,44.5,30.2,29.90,NNW,331,1.0,3.0,57,0.00,,,0.00,Wunderground v.1.15,2013-01-22 09:14:00,
2013-01-22 04:20:00,44.5,30.2,29.90,NNW,331,1.0,3.0,57,0.00,,,0.00,Wunderground v.1.15,2013-01-22 09:20:00,
2013-01-22 04:25:00,44.3,30.0,29.90,NNW,331,1.0,3.0,57,0.00,,,0.00,Wunderground v.1.15,2013-01-22 09:25:00,
2013-01-22 04:31:00,44.2,30.3,29.90,NNW,331,0.0,3.0,58,0.00,,,0.00,Wunderground v.1.15,2013-01-22 09:31:00,
2013-01-22 04:37:00,44.1,30.3,29.90,NNW,331,0.0,3.0,58,0.00,,,0.00,Wunderground v.1.15,2013-01-22 09:37:00,
2013-01-22 04:42:00,43.9,30.1,29.90,NNW,331,0.0,3.0,58,0.00,,,0.00,Wunderground v.1.15,2013-01-22 09:42:00,
2013-01-22 04:47:00,43.8,30.0,29.90,NNW,331,0.0,3.0,58,0.00,,,0.00,Wunderground v.1.15,2013-01-22 09:47:00,
2013-01-22 04:52:00,43.6,29.8,29.90,NNW,331,0.0,3.0,58,0.00,,,0.00,Wunderground v.1.15,2013-01-22 09:52:00,
2013-01-22 04:57:00,43.3,29.5,29.90,NNW,331,0.0,3.0,58,0.00,,,0.00,Wunderground v.1.15,2013-01-22 09:57:00,
2013-01-22 05:02:00,43.2,29.8,29.91,NNW,331,1.0,1.0,59,0.00,,,0.00,Wunderground v.1.15,2013-01-22 10:02:00,
2013-01-22 05:07:00,43.1,29.7,29.91,NNW,331,1.0,3.0,59,0.00,,,0.00,Wunderground v.1.15,2013-01-22 10:07:00,
2013-01-22 05:13:00,42.8,29.5,29.91,NNW,331,0.0,3.0,59,0.00,,,0.00,Wunderground v.1.15,2013-01-22 10:13:00,
2013-01-22 05:18:00,42.6,29.3,29.91,NNW,331,0.0,3.0,59,0.00,,,0.00,Wunderground v.1.15,2013-01-22 10:18:00,
2013-01-22 05:23:00,42.5,29.2,29.91,NNW,331,0.0,3.0,59,0.00,,,0.00,Wunderground v.1.15,2013-01-22 10:23:00,
2013-01-22 05:28:00,42.3,28.6,29.92,NNW,331,0.0,3.0,58,0.00,,,0.00,Wunderground v.1.15,2013-01-22 10:28:00,
2013-01-22 05:33:00,42.3,28.6,29.92,NNW,331,0.0,3.0,58,0.00,,,0.00,Wunderground v.1.15,2013-01-22 10:33:00,
2013-01-22 05:39:00,42.1,28.4,29.92,NNW,331,0.0,3.0,58,0.00,,,0.00,Wunderground v.1.15,2013-01-22 10:39:00,
2013-01-22 05:44:00,41.9,28.6,29.92,NNW,331,0.0,3.0,59,0.00,,,0.00,Wunderground v.1.15,2013-01-22 10:44:00,
2013-01-22 05:49:00,41.6,28.7,29.92,NNW,331,0.0,3.0,60,0.00,,,0.00,Wunderground v.1.15,2013-01-22 10:49:00,
2013-01-22 05:54:00,41.5,28.6,29.92,NNW,331,0.0,3.0,60,0.00,,,0.00,Wunderground v.1.15,2013-01-22 10:54:00,
2013-01-22 06:01:00,41.3,29.3,29.94,NNW,331,1.0,3.0,62,0.00,,,0.00,Wunderground v.1.15,2013-01-22 11:01:00,
2013-01-22 06:06:00,41.2,29.2,29.94,NNW,331,0.0,3.0,62,0.00,,,0.00,Wunderground v.1.15,2013-01-22 11:06:00,
2013-01-22 06:12:00,41.1,29.1,29.94,NNW,331,0.0,3.0,62,0.00,,,0.00,Wunderground v.1.15,2013-01-22 11:12:00,
2013-01-22 06:17:00,40.9,29.3,29.95,NNW,331,0.0,3.0,63,0.00,,,0.00,Wunderground v.1.15,2013-01-22 11:17:00,
2013-01-22 06:23:00,40.8,29.2,29.95,NNW,331,0.0,3.0,63,0.00,,,0.00,Wunderground v.1.15,2013-01-22 11:23:00,
2013-01-22 06:28:00,40.8,29.2,29.95,NNW,331,0.0,3.0,63,0.00,,,0.00,Wunderground v.1.15,2013-01-22 11:28:00,
2013-01-22 06:33:00,40.6,29.0,29.95,NNW,331,0.0,3.0,63,0.00,,,0.00,Wunderground v.1.15,2013-01-22 11:33:00,
2013-01-22 06:39:00,40.6,29.0,29.95,NNW,331,0.0,3.0,63,0.00,,,0.00,Wunderground v.1.15,2013-01-22 11:39:00,
2013-01-22 06:44:00,40.5,28.9,29.96,NNW,331,0.0,3.0,63,0.00,,,0.00,Wunderground v.1.15,2013-01-22 11:44:00,
2013-01-22 06:49:00,40.5,28.9,29.96,NNW,331,0.0,3.0,63,0.00,,,0.00,Wunderground v.1.15,2013-01-22 11:49:00,
2013-01-22 06:54:00,40.5,28.5,29.96,NNW,331,0.0,3.0,62,0.00,,,0.00,Wunderground v.1.15,2013-01-22 11:54:00,
2013-01-22 06:59:00,40.5,28.5,29.97,NNW,331,0.0,3.0,62,0.00,,,0.00,Wunderground v.1.15,2013-01-22 11:59:00,
2013-01-22 07:05:00,40.5,28.1,29.97,NNW,331,1.0,3.0,61,0.00,,,0.00,Wunderground v.1.15,2013-01-22 12:05:00,
2013-01-22 07:10:00,40.5,28.5,29.97,NNW,331,0.0,3.0,62,0.00,,,0.00,Wunderground v.1.15,2013-01-22 12:10:00,
2013-01-22 07:15:00,40.5,28.1,29.98,NNW,331,0.0,3.0,61,0.00,,,0.00,Wunderground v.1.15,2013-01-22 12:15:00,
2013-01-22 07:22:00,40.5,27.7,29.98,NNW,331,1.0,3.0,60,0.00,,,0.00,Wunderground v.1.15,2013-01-22 12:22:00,
2013-01-22 07:27:00,40.5,27.7,29.98,NNW,331,1.0,3.0,60,0.00,,,0.00,Wunderground v.1.15,2013-01-22 12:27:00,
2013-01-22 07:32:00,40.5,27.7,29.98,NNW,331,1.0,3.0,60,0.00,,,0.00,Wunderground v.1.15,2013-01-22 12:32:00,
2013-01-22 07:38:00,40.5,27.7,29.98,NNW,331,1.0,3.0,60,0.00,,,0.00,Wunderground v.1.15,2013-01-22 12:38:00,
2013-01-22 07:43:00,40.3,27.5,29.98,NNW,331,1.0,3.0,60,0.00,,,0.00,Wunderground v.1.15,2013-01-22 12:43:00,
2013-01-22 07:48:00,40.3,27.5,29.98,NNW,331,1.0,3.0,60,0.00,,,0.00,Wunderground v.1.15,2013-01-22 12:48:00,
2013-01-22 07:54:00,40.3,27.1,29.98,NNW,331,1.0,3.0,59,0.00,,,0.00,Wunderground v.1.15,2013-01-22 12:54:00,
2013-01-22 07:59:00,40.3,27.1,30.00,NNW,331,1.0,3.0,59,0.00,,,0.00,Wunderground v.1.15,2013-01-22 12:59:00,
2013-01-22 08:04:00,40.3,27.5,30.00,NNW,331,1.0,3.0,60,0.00,,,0.00,Wunderground v.1.15,2013-01-22 13:04:00,
2013-01-22 08:09:00,40.3,27.5,30.00,NNW,331,1.0,3.0,60,0.00,,,0.00,Wunderground v.1.15,2013-01-22 13:09:00,
2013-01-22 08:15:00,40.5,27.7,30.00,NNW,331,1.0,3.0,60,0.00,,,0.00,Wunderground v.1.15,2013-01-22 13:15:00,
2013-01-22 08:20:00,40.5,27.3,30.00,NNW,331,1.0,4.0,59,0.00,,,0.00,Wunderground v.1.15,2013-01-22 13:20:00,
2013-01-22 08:25:00,40.6,27.4,30.00,NNW,331,2.0,3.0,59,0.00,,,0.00,Wunderground v.1.15,2013-01-22 13:25:00,
2013-01-22 08:30:00,40.8,27.2,30.01,NNW,331,2.0,5.0,58,0.00,,,0.00,Wunderground v.1.15,2013-01-22 13:30:00,
2013-01-22 08:37:00,41.1,27.0,30.01,NNW,331,3.0,3.0,57,0.00,,,0.00,Wunderground v.1.15,2013-01-22 13:37:00,
2013-01-22 08:43:00,41.3,27.6,30.01,NNW,331,3.0,3.0,58,0.00,,,0.00,Wunderground v.1.15,2013-01-22 13:43:00,
2013-01-22 08:48:00,41.8,28.1,30.01,NW,322,2.0,4.0,58,0.00,,,0.00,Wunderground v.1.15,2013-01-22 13:48:00,
2013-01-22 08:53:00,42.2,26.7,30.01,NW,321,3.0,4.0,54,0.00,,,0.00,Wunderground v.1.15,2013-01-22 13:53:00,
2013-01-22 08:58:00,42.6,27.1,30.02,NW,321,3.0,4.0,54,0.00,,,0.00,Wunderground v.1.15,2013-01-22 13:58:00,
2013-01-22 09:04:00,42.9,26.0,30.02,NNW,335,3.0,4.0,51,0.00,,,0.00,Wunderground v.1.15,2013-01-22 14:04:00,
2013-01-22 09:09:00,43.3,25.4,30.02,NNW,347,3.0,5.0,49,0.00,,,0.00,Wunderground v.1.15,2013-01-22 14:09:00,
2013-01-22 09:14:00,43.6,24.7,30.02,NNW,337,4.0,5.0,47,0.00,,,0.00,Wunderground v.1.15,2013-01-22 14:14:00,
2013-01-22 09:19:00,43.8,24.9,30.02,North,355,3.0,5.0,47,0.00,,,0.00,Wunderground v.1.15,2013-01-22 14:19:00,
2013-01-22 09:24:00,44.1,24.1,30.02,NNW,336,3.0,5.0,45,0.00,,,0.00,Wunderground v.1.15,2013-01-22 14:24:00,
2013-01-22 09:29:00,44.3,24.3,30.03,NNW,347,3.0,5.0,45,0.00,,,0.00,Wunderground v.1.15,2013-01-22 14:29:00,
2013-01-22 09:34:00,44.3,24.3,30.03,NNW,338,3.0,3.0,45,0.00,,,0.00,Wunderground v.1.15,2013-01-22 14:34:00,
2013-01-22 09:40:00,44.5,23.4,30.03,NNW,338,2.0,3.0,43,0.00,,,0.00,Wunderground v.1.15,2013-01-22 14:40:00,
2013-01-22 09:45:00,44.6,22.3,30.03,NNE,13,2.0,3.0,41,0.00,,,0.00,Wunderground v.1.15,2013-01-22 14:45:00,
2013-01-22 09:50:00,44.9,22.0,30.03,North,350,3.0,4.0,40,0.00,,,0.00,Wunderground v.1.15,2013-01-22 14:50:00,
2013-01-22 09:55:00,45.1,21.6,30.03,East,100,3.0,4.0,39,0.00,,,0.00,Wunderground v.1.15,2013-01-22 14:55:00,
2013-01-22 10:00:00,45.5,21.9,30.04,NNE,22,3.0,4.0,39,0.00,,,0.00,Wunderground v.1.15,2013-01-22 15:00:00,
2013-01-22 10:05:00,45.8,21.0,30.04,NNW,345,2.0,3.0,37,0.00,,,0.00,Wunderground v.1.15,2013-01-22 15:05:00,
2013-01-22 10:11:00,45.8,21.0,30.04,ENE,75,2.0,3.0,37,0.00,,,0.00,Wunderground v.1.15,2013-01-22 15:11:00,
2013-01-22 10:16:00,45.7,20.9,30.05,NNW,334,3.0,7.0,37,0.00,,,0.00,Wunderground v.1.15,2013-01-22 15:16:00,
2013-01-22 10:21:00,45.2,18.5,30.05,NNW,344,4.0,7.0,34,0.00,,,0.00,Wunderground v.1.15,2013-01-22 15:21:00,
2013-01-22 10:26:00,45.5,20.1,30.05,NE,49,3.0,4.0,36,0.00,,,0.00,Wunderground v.1.15,2013-01-22 15:26:00,
2013-01-22 10:32:00,46.0,19.8,30.05,NNW,348,2.0,3.0,35,0.00,,,0.00,Wunderground v.1.15,2013-01-22 15:32:00,
2013-01-22 10:37:00,46.5,18.9,30.05,NE,48,2.0,4.0,33,0.00,,,0.00,Wunderground v.1.15,2013-01-22 15:37:00,
2013-01-22 10:42:00,46.7,18.4,30.05,North,350,3.0,4.0,32,0.00,,,0.00,Wunderground v.1.15,2013-01-22 15:42:00,
2013-01-22 10:48:00,46.5,18.2,30.05,NW,326,3.0,6.0,32,0.00,,,0.00,Wunderground v.1.15,2013-01-22 15:48:00,
2013-01-22 10:54:00,45.8,16.8,30.05,NNW,335,5.0,7.0,31,0.00,,,0.00,Wunderground v.1.15,2013-01-22 15:54:00,
2013-01-22 10:59:00,46.1,17.1,30.05,North,5,4.0,7.0,31,0.00,,,0.00,Wunderground v.1.15,2013-01-22 15:59:00,
2013-01-22 11:04:00,46.7,19.1,30.05,ESE,111,1.0,5.0,33,0.00,,,0.00,Wunderground v.1.15,2013-01-22 16:04:00,
2013-01-22 11:10:00,47.3,18.1,30.05,North,355,2.0,5.0,31,0.00,,,0.00,Wunderground v.1.15,2013-01-22 16:10:00,
2013-01-22 11:17:00,47.4,16.7,30.05,North,360,3.0,4.0,29,0.00,,,0.00,Wunderground v.1.15,2013-01-22 16:17:00,
2013-01-22 11:22:00,47.4,17.5,30.05,North,5,3.0,3.0,30,0.00,,,0.00,Wunderground v.1.15,2013-01-22 16:22:00,
2013-01-22 11:28:00,47.1,18.0,30.04,NW,326,3.0,11.0,31,0.00,,,0.00,Wunderground v.1.15,2013-01-22 16:28:00,
2013-01-22 11:33:00,47.4,17.5,30.04,NE,36,3.0,3.0,30,0.00,,,0.00,Wunderground v.1.15,2013-01-22 16:33:00,
2013-01-22 11:38:00,47.9,20.1,30.04,NNW,347,2.0,3.0,33,0.00,,,0.00,Wunderground v.1.15,2013-01-22 16:38:00,
2013-01-22 11:43:00,47.3,17.4,30.04,NNE,28,2.0,3.0,30,0.00,,,0.00,Wunderground v.1.15,2013-01-22 16:43:00,
2013-01-22 11:49:00,47.9,17.9,30.04,NE,56,2.0,3.0,30,0.00,,,0.00,Wunderground v.1.15,2013-01-22 16:49:00,
2013-01-22 11:54:00,48.3,17.5,30.04,ENE,77,2.0,3.0,29,0.00,,,0.00,Wunderground v.1.15,2013-01-22 16:54:00,
2013-01-22 11:59:00,48.8,16.2,30.04,NNW,346,2.0,6.0,27,0.00,,,0.00,Wunderground v.1.15,2013-01-22 16:59:00,
2013-01-22 12:04:00,48.2,15.7,30.04,NNW,333,3.0,7.0,27,0.00,,,0.00,Wunderground v.1.15,2013-01-22 17:04:00,
2013-01-22 12:10:00,48.3,17.5,30.04,NNW,338,3.0,7.0,29,0.00,,,0.00,Wunderground v.1.15,2013-01-22 17:10:00,
2013-01-22 12:15:00,48.2,18.2,30.03,NW,318,3.0,4.0,30,0.00,,,0.00,Wunderground v.1.15,2013-01-22 17:15:00,
2013-01-22 12:21:00,48.6,17.7,30.03,NNW,344,2.0,6.0,29,0.00,,,0.00,Wunderground v.1.15,2013-01-22 17:21:00,
2013-01-22 12:26:00,48.8,20.9,30.03,North,360,2.0,5.0,33,0.00,,,0.00,Wunderground v.1.15,2013-01-22 17:26:00,
2013-01-22 12:32:00,49.4,19.2,30.03,NE,51,1.0,1.0,30,0.00,,,0.00,Wunderground v.1.15,2013-01-22 17:32:00,
2013-01-22 12:37:00,49.8,18.0,30.03,NNW,346,1.0,6.0,28,0.00,,,0.00,Wunderground v.1.15,2013-01-22 17:37:00,
2013-01-22 12:42:00,49.2,18.3,30.03,NW,321,2.0,3.0,29,0.00,,,0.00,Wunderground v.1.15,2013-01-22 17:42:00,
2013-01-22 12:48:00,49.6,20.2,30.01,ENE,67,2.0,3.0,31,0.00,,,0.00,Wunderground v.1.15,2013-01-22 17:48:00,
2013-01-22 12:53:00,49.9,18.0,30.01,North,355,2.0,7.0,28,0.00,,,0.00,Wunderground v.1.15,2013-01-22 17:53:00,
2013-01-22 12:59:00,49.4,17.6,30.01,NE,40,4.0,7.0,28,0.00,,,0.00,Wunderground v.1.15,2013-01-22 17:59:00,
2013-01-22 13:04:00,49.9,18.0,30.01,NE,35,2.0,3.0,28,0.00,,,0.00,Wunderground v.1.15,2013-01-22 18:04:00,
2013-01-22 13:09:00,50.1,18.2,30.01,NNW,346,2.0,5.0,28,0.00,,,0.00,Wunderground v.1.15,2013-01-22 18:09:00,
2013-01-22 13:14:00,50.4,19.3,30.00,NNW,347,2.0,3.0,29,0.00,,,0.00,Wunderground v.1.15,2013-01-22 18:14:00,
2013-01-22 13:19:00,51.0,18.1,30.00,NNE,18,1.0,4.0,27,0.00,,,0.00,Wunderground v.1.15,2013-01-22 18:19:00,
2013-01-22 13:25:00,51.0,18.1,30.00,WNW,303,2.0,4.0,27,0.00,,,0.00,Wunderground v.1.15,2013-01-22 18:25:00,
2013-01-22 13:30:00,50.5,18.6,30.00,NNW,347,4.0,5.0,28,0.00,,,0.00,Wunderground v.1.15,2013-01-22 18:30:00,
2013-01-22 13:35:00,50.4,17.6,30.00,NW,316,2.0,3.0,27,0.00,,,0.00,Wunderground v.1.15,2013-01-22 18:35:00,
2013-01-22 13:40:00,50.4,17.6,30.00,NW,323,2.0,6.0,27,0.00,,,0.00,Wunderground v.1.15,2013-01-22 18:40:00,
2013-01-22 13:46:00,50.4,19.3,30.00,NNW,331,3.0,5.0,29,0.00,,,0.00,Wunderground v.1.15,2013-01-22 18:46:00,
2013-01-22 13:52:00,50.2,18.3,30.00,WNW,296,2.0,9.0,28,0.00,,,0.00,Wunderground v.1.15,2013-01-22 18:52:00,
2013-01-22 13:58:00,51.1,19.1,30.00,North,355,2.0,9.0,28,0.00,,,0.00,Wunderground v.1.15,2013-01-22 18:58:00,
2013-01-22 14:03:00,51.9,19.8,30.00,NNE,22,1.0,3.0,28,0.00,,,0.00,Wunderground v.1.15,2013-01-22 19:03:00,
2013-01-22 14:08:00,52.5,19.4,30.00,NNW,348,1.0,6.0,27,0.00,,,0.00,Wunderground v.1.15,2013-01-22 19:08:00,
2013-01-22 14:14:00,51.4,18.5,30.00,WNW,300,3.0,4.0,27,0.00,,,0.00,Wunderground v.1.15,2013-01-22 19:14:00,
2013-01-22 14:19:00,50.8,18.0,30.00,NNW,329,4.0,5.0,27,0.00,,,0.00,Wunderground v.1.15,2013-01-22 19:19:00,
2013-01-22 14:24:00,50.5,17.7,30.00,NNW,340,4.0,4.0,27,0.00,,,0.00,Wunderground v.1.15,2013-01-22 19:24:00,
2013-01-22 14:29:00,50.4,17.6,30.00,NW,317,3.0,4.0,27,0.00,,,0.00,Wunderground v.1.15,2013-01-22 19:29:00,
2013-01-22 14:34:00,50.7,18.7,30.00,NW,310,3.0,4.0,28,0.00,,,0.00,Wunderground v.1.15,2013-01-22 19:34:00,
2013-01-22 14:39:00,50.7,18.7,30.00,West,268,3.0,4.0,28,0.00,,,0.00,Wunderground v.1.15,2013-01-22 19:39:00,
2013-01-22 14:44:00,51.6,19.5,30.00,North,355,2.0,3.0,28,0.00,,,0.00,Wunderground v.1.15,2013-01-22 19:44:00,
2013-01-22 14:49:00,51.9,18.0,30.00,North,360,2.0,3.0,26,0.00,,,0.00,Wunderground v.1.15,2013-01-22 19:49:00,
2013-01-22 14:55:00,52.0,19.0,30.00,NNW,329,2.0,7.0,27,0.00,,,0.00,Wunderground v.1.15,2013-01-22 19:55:00,
2013-01-22 15:00:00,51.7,17.9,30.00,NW,315,2.0,7.0,26,0.00,,,0.00,Wunderground v.1.15,2013-01-22 20:00:00,
2013-01-22 15:07:00,51.1,19.1,30.00,North,350,3.0,5.0,28,0.00,,,0.00,Wunderground v.1.15,2013-01-22 20:07:00,
2013-01-22 15:13:00,51.6,19.5,30.00,NW,317,2.0,3.0,28,0.00,,,0.00,Wunderground v.1.15,2013-01-22 20:13:00,
2013-01-22 15:18:00,52.2,18.3,30.00,NNW,334,1.0,3.0,26,0.00,,,0.00,Wunderground v.1.15,2013-01-22 20:18:00,
2013-01-22 15:23:00,52.5,19.4,30.00,West,273,1.0,4.0,27,0.00,,,0.00,Wunderground v.1.15,2013-01-22 20:23:00,
2013-01-22 15:29:00,52.0,18.1,30.00,North,349,3.0,4.0,26,0.00,,,0.00,Wunderground v.1.15,2013-01-22 20:29:00,
2013-01-22 15:34:00,51.7,17.9,30.00,WNW,302,3.0,3.0,26,0.00,,,0.00,Wunderground v.1.15,2013-01-22 20:34:00,
2013-01-22 15:39:00,51.1,18.2,30.00,NW,306,4.0,7.0,27,0.00,,,0.00,Wunderground v.1.15,2013-01-22 20:39:00,
2013-01-22 15:44:00,50.8,18.0,30.00,NW,313,4.0,4.0,27,0.00,,,0.00,Wunderground v.1.15,2013-01-22 20:44:00,
2013-01-22 15:50:00,50.7,18.7,30.00,NNW,334,3.0,4.0,28,0.00,,,0.00,Wunderground v.1.15,2013-01-22 20:50:00,
2013-01-22 15:55:00,50.5,18.6,30.00,NNW,344,3.0,5.0,28,0.00,,,0.00,Wunderground v.1.15,2013-01-22 20:55:00,
2013-01-22 16:02:00,50.4,18.5,30.02,NNW,348,4.0,4.0,28,0.00,,,0.00,Wunderground v.1.15,2013-01-22 21:02:00,
2013-01-22 16:08:00,50.2,18.3,30.02,NNW,336,4.0,5.0,28,0.00,,,0.00,Wunderground v.1.15,2013-01-22 21:08:00,
2013-01-22 16:13:00,50.2,18.3,30.02,NNW,343,3.0,6.0,28,0.00,,,0.00,Wunderground v.1.15,2013-01-22 21:13:00,
2013-01-22 16:18:00,50.4,20.1,30.02,NW,306,4.0,6.0,30,0.00,,,0.00,Wunderground v.1.15,2013-01-22 21:18:00,
2013-01-22 16:23:00,50.4,18.5,30.02,NW,318,4.0,4.0,28,0.00,,,0.00,Wunderground v.1.15,2013-01-22 21:23:00,
2013-01-22 16:29:00,50.2,18.3,30.02,NW,309,3.0,5.0,28,0.00,,,0.00,Wunderground v.1.15,2013-01-22 21:29:00,
2013-01-22 16:34:00,50.1,18.2,30.02,NNW,329,3.0,7.0,28,0.00,,,0.00,Wunderground v.1.15,2013-01-22 21:34:00,
2013-01-22 16:39:00,49.6,18.6,30.02,NNW,330,4.0,7.0,29,0.00,,,0.00,Wunderground v.1.15,2013-01-22 21:39:00,
2013-01-22 16:44:00,49.6,19.4,30.03,NNW,338,4.0,5.0,30,0.00,,,0.00,Wunderground v.1.15,2013-01-22 21:44:00,
2013-01-22 16:49:00,49.5,20.1,30.03,NW,323,3.0,5.0,31,0.00,,,0.00,Wunderground v.1.15,2013-01-22 21:49:00,
2013-01-22 16:54:00,49.4,19.2,30.03,NNW,340,3.0,5.0,30,0.00,,,0.00,Wunderground v.1.15,2013-01-22 21:54:00,
2013-01-22 16:59:00,49.1,18.2,30.03,NNW,334,4.0,7.0,29,0.00,,,0.00,Wunderground v.1.15,2013-01-22 21:59:00,
2013-01-22 17:04:00,48.9,18.8,30.03,NNW,331,3.0,4.0,30,0.00,,,0.00,Wunderground v.1.15,2013-01-22 22:04:00,
2013-01-22 17:09:00,48.8,19.5,30.03,NNW,331,2.0,5.0,31,0.00,,,0.00,Wunderground v.1.15,2013-01-22 22:09:00,
2013-01-22 17:14:00,48.8,19.5,30.04,NNW,332,3.0,3.0,31,0.00,,,0.00,Wunderground v.1.15,2013-01-22 22:14:00,
2013-01-22 17:20:00,48.5,19.9,30.04,NNW,333,3.0,4.0,32,0.00,,,0.00,Wunderground v.1.15,2013-01-22 22:20:00,
2013-01-22 17:25:00,48.2,18.9,30.04,North,5,3.0,4.0,31,0.00,,,0.00,Wunderground v.1.15,2013-01-22 22:25:00,
2013-01-22 17:30:00,48.0,19.5,30.05,North,5,2.0,4.0,32,0.00,,,0.00,Wunderground v.1.15,2013-01-22 22:30:00,
2013-01-22 17:35:00,47.7,19.2,30.05,North,5,1.0,3.0,32,0.00,,,0.00,Wunderground v.1.15,2013-01-22 22:35:00,
2013-01-22 17:42:00,47.3,21.0,30.05,North,5,1.0,3.0,35,0.00,,,0.00,Wunderground v.1.15,2013-01-22 22:42:00,
2013-01-22 17:47:00,47.0,20.7,30.05,North,5,0.0,3.0,35,0.00,,,0.00,Wunderground v.1.15,2013-01-22 22:47:00,
2013-01-22 17:53:00,46.8,23.1,30.05,North,5,0.0,3.0,39,0.00,,,0.00,Wunderground v.1.15,2013-01-22 22:53:00,
2013-01-22 17:58:00,46.5,23.4,30.05,North,5,0.0,3.0,40,0.00,,,0.00,Wunderground v.1.15,2013-01-22 22:58:00,
2013-01-22 18:03:00,46.2,23.8,30.05,North,5,0.0,3.0,41,0.00,,,0.00,Wunderground v.1.15,2013-01-22 23:03:00,
2013-01-22 18:08:00,45.8,24.5,30.05,North,5,0.0,3.0,43,0.00,,,0.00,Wunderground v.1.15,2013-01-22 23:08:00,
2013-01-22 18:14:00,45.5,24.8,30.05,North,5,0.0,3.0,44,0.00,,,0.00,Wunderground v.1.15,2013-01-22 23:14:00,
2013-01-22 18:19:00,45.1,25.5,30.05,North,5,0.0,3.0,46,0.00,,,0.00,Wunderground v.1.15,2013-01-22 23:19:00,
2013-01-22 18:24:00,44.6,26.1,30.05,North,5,0.0,3.0,48,0.00,,,0.00,Wunderground v.1.15,2013-01-22 23:24:00,
2013-01-22 18:30:00,44.1,25.6,30.06,North,5,0.0,3.0,48,0.00,,,0.00,Wunderground v.1.15,2013-01-22 23:30:00,
2013-01-22 18:35:00,43.5,25.1,30.06,North,5,0.0,3.0,48,0.00,,,0.00,Wunderground v.1.15,2013-01-22 23:35:00,
2013-01-22 18:40:00,43.1,25.7,30.06,North,5,0.0,3.0,50,0.00,,,0.00,Wunderground v.1.15,2013-01-22 23:40:00,
2013-01-22 18:45:00,42.8,26.4,30.06,North,5,0.0,3.0,52,0.00,,,0.00,Wunderground v.1.15,2013-01-22 23:45:00,
2013-01-22 18:51:00,42.3,26.8,30.06,North,5,0.0,3.0,54,0.00,,,0.00,Wunderground v.1.15,2013-01-22 23:51:00,
2013-01-22 18:56:00,41.9,26.9,30.06,North,5,0.0,3.0,55,0.00,,,0.00,Wunderground v.1.15,2013-01-22 23:56:00,
2013-01-22 19:01:00,41.3,26.3,30.06,North,5,0.0,3.0,55,0.00,,,0.00,Wunderground v.1.15,2013-01-23 00:01:00,
2013-01-22 19:06:00,41.1,26.6,30.06,North,5,0.0,3.0,56,0.00,,,0.00,Wunderground v.1.15,2013-01-23 00:06:00,
2013-01-22 19:11:00,40.6,26.1,30.06,North,5,0.0,3.0,56,0.00,,,0.00,Wunderground v.1.15,2013-01-23 00:11:00,
2013-01-22 19:16:00,40.5,26.4,30.06,North,5,0.0,3.0,57,0.00,,,0.00,Wunderground v.1.15,2013-01-23 00:16:00,
2013-01-22 19:21:00,40.2,25.7,30.06,North,5,0.0,3.0,56,0.00,,,0.00,Wunderground v.1.15,2013-01-23 00:21:00,
2013-01-22 19:27:00,39.9,25.5,30.06,North,5,0.0,3.0,56,0.00,,,0.00,Wunderground v.1.15,2013-01-23 00:27:00,
2013-01-22 19:32:00,39.8,26.6,30.06,North,5,0.0,3.0,59,0.00,,,0.00,Wunderground v.1.15,2013-01-23 00:32:00,
2013-01-22 19:37:00,39.5,26.3,30.06,North,5,0.0,3.0,59,0.00,,,0.00,Wunderground v.1.15,2013-01-23 00:37:00,
2013-01-22 19:42:00,39.3,26.6,30.06,North,5,0.0,3.0,60,0.00,,,0.00,Wunderground v.1.15,2013-01-23 00:42:00,
2013-01-22 19:47:00,39.1,26.4,30.07,North,5,0.0,3.0,60,0.00,,,0.00,Wunderground v.1.15,2013-01-23 00:47:00,
2013-01-22 19:53:00,38.8,26.9,30.07,North,5,0.0,3.0,62,0.00,,,0.00,Wunderground v.1.15,2013-01-23 00:53:00,
2013-01-22 19:58:00,38.5,27.4,30.07,North,5,0.0,3.0,64,0.00,,,0.00,Wunderground v.1.15,2013-01-23 00:58:00,
2013-01-22 20:03:00,38.2,27.5,30.07,North,5,0.0,3.0,65,0.00,,,0.00,Wunderground v.1.15,2013-01-23 01:03:00,
2013-01-22 20:08:00,37.9,27.2,30.07,North,5,0.0,3.0,65,0.00,,,0.00,Wunderground v.1.15,2013-01-23 01:08:00,
2013-01-22 20:14:00,37.6,27.6,30.08,North,5,0.0,3.0,67,0.00,,,0.00,Wunderground v.1.15,2013-01-23 01:14:00,
2013-01-22 20:19:00,37.5,27.5,30.08,North,5,0.0,3.0,67,0.00,,,0.00,Wunderground v.1.15,2013-01-23 01:19:00,
2013-01-22 20:24:00,37.2,27.2,30.08,North,5,0.0,3.0,67,0.00,,,0.00,Wunderground v.1.15,2013-01-23 01:24:00,
2013-01-22 20:29:00,37.0,27.4,30.08,North,5,0.0,3.0,68,0.00,,,0.00,Wunderground v.1.15,2013-01-23 01:29:00,
2013-01-22 20:35:00,36.8,27.6,30.08,North,5,0.0,3.0,69,0.00,,,0.00,Wunderground v.1.15,2013-01-23 01:35:00,
2013-01-22 20:40:00,36.6,27.4,30.08,North,5,0.0,3.0,69,0.00,,,0.00,Wunderground v.1.15,2013-01-23 01:40:00,
2013-01-22 20:46:00,36.5,27.6,30.08,North,5,0.0,3.0,70,0.00,,,0.00,Wunderground v.1.15,2013-01-23 01:46:00,
2013-01-22 20:51:00,36.2,27.4,30.08,North,5,0.0,3.0,70,0.00,,,0.00,Wunderground v.1.15,2013-01-23 01:51:00,
2013-01-22 20:56:00,36.0,27.2,30.08,North,5,0.0,3.0,70,0.00,,,0.00,Wunderground v.1.15,2013-01-23 01:56:00,
2013-01-22 21:02:00,35.9,27.1,30.08,North,5,0.0,3.0,70,0.00,,,0.00,Wunderground v.1.15,2013-01-23 02:02:00,
2013-01-22 21:07:00,35.8,27.0,30.08,North,5,0.0,3.0,70,0.00,,,0.00,Wunderground v.1.15,2013-01-23 02:07:00,
2013-01-22 21:13:00,35.6,27.5,30.08,North,5,0.0,3.0,72,0.00,,,0.00,Wunderground v.1.15,2013-01-23 02:13:00,
2013-01-22 21:18:00,35.3,27.5,30.08,NNE,15,0.0,4.0,73,0.00,,,0.00,Wunderground v.1.15,2013-01-23 02:18:00,
2013-01-22 21:23:00,35.0,27.5,30.08,NNE,15,0.0,3.0,74,0.00,,,0.00,Wunderground v.1.15,2013-01-23 02:23:00,
2013-01-22 21:28:00,35.0,27.9,30.08,NNE,15,0.0,3.0,75,0.00,,,0.00,Wunderground v.1.15,2013-01-23 02:28:00,
2013-01-22 21:34:00,34.9,28.1,30.08,NNE,15,0.0,3.0,76,0.00,,,0.00,Wunderground v.1.15,2013-01-23 02:34:00,
2013-01-22 21:39:00,34.7,27.9,30.08,NNE,15,0.0,3.0,76,0.00,,,0.00,Wunderground v.1.15,2013-01-23 02:39:00,
2013-01-22 21:44:00,34.7,27.9,30.08,NNE,15,0.0,3.0,76,0.00,,,0.00,Wunderground v.1.15,2013-01-23 02:44:00,
2013-01-22 21:49:00,34.6,27.8,30.08,NNE,15,0.0,3.0,76,0.00,,,0.00,Wunderground v.1.15,2013-01-23 02:49:00,
2013-01-22 21:54:00,34.4,27.3,30.08,NNE,15,0.0,3.0,75,0.00,,,0.00,Wunderground v.1.15,2013-01-23 02:54:00,
2013-01-22 22:00:00,34.3,27.5,30.08,NNE,15,0.0,3.0,76,0.00,,,0.00,Wunderground v.1.15,2013-01-23 03:00:00,
2013-01-22 22:05:00,34.3,27.5,30.08,NNE,15,0.0,3.0,76,0.00,,,0.00,Wunderground v.1.15,2013-01-23 03:05:00,
2013-01-22 22:12:00,34.1,27.3,30.08,NNE,15,0.0,3.0,76,0.00,,,0.00,Wunderground v.1.15,2013-01-23 03:12:00,
2013-01-22 22:17:00,34.0,27.5,30.09,NNE,15,0.0,3.0,77,0.00,,,0.00,Wunderground v.1.15,2013-01-23 03:17:00,
2013-01-22 22:23:00,33.7,27.3,30.09,NNE,15,0.0,3.0,77,0.00,,,0.00,Wunderground v.1.15,2013-01-23 03:23:00,
2013-01-22 22:28:00,33.7,27.3,30.09,NNE,15,0.0,3.0,77,0.00,,,0.00,Wunderground v.1.15,2013-01-23 03:28:00,
2013-01-22 22:33:00,33.5,27.1,30.09,NNE,15,0.0,3.0,77,0.00,,,0.00,Wunderground v.1.15,2013-01-23 03:33:00,
2013-01-22 22:39:00,33.4,27.0,30.09,NNE,15,0.0,3.0,77,0.00,,,0.00,Wunderground v.1.15,2013-01-23 03:39:00,
2013-01-22 22:44:00,33.4,27.3,30.10,NNE,15,0.0,3.0,78,0.00,,,0.00,Wunderground v.1.15,2013-01-23 03:44:00,
2013-01-22 22:50:00,33.1,27.0,30.10,NNE,15,0.0,3.0,78,0.00,,,0.00,Wunderground v.1.15,2013-01-23 03:50:00,
2013-01-22 22:55:00,32.8,26.7,30.10,NNE,15,0.0,3.0,78,0.00,,,0.00,Wunderground v.1.15,2013-01-23 03:55:00,
2013-01-22 23:00:00,32.7,26.9,30.10,NNE,15,0.0,3.0,79,0.00,,,0.00,Wunderground v.1.15,2013-01-23 04:00:00,
2013-01-22 23:05:00,32.5,26.7,30.10,NNE,15,0.0,3.0,79,0.00,,,0.00,Wunderground v.1.15,2013-01-23 04:05:00,
2013-01-22 23:10:00,32.5,27.0,30.10,NNE,15,0.0,3.0,80,0.00,,,0.00,Wunderground v.1.15,2013-01-23 04:10:00,
2013-01-22 23:15:00,32.5,27.0,30.10,NNE,15,0.0,3.0,80,0.00,,,0.00,Wunderground v.1.15,2013-01-23 04:15:00,
2013-01-22 23:21:00,32.4,27.2,30.10,NNE,15,0.0,3.0,81,0.00,,,0.00,Wunderground v.1.15,2013-01-23 04:21:00,
2013-01-22 23:27:00,32.4,27.2,30.10,NNE,15,0.0,3.0,81,0.00,,,0.00,Wunderground v.1.15,2013-01-23 04:27:00,
2013-01-22 23:32:00,32.4,27.5,30.10,NNE,15,0.0,3.0,82,0.00,,,0.00,Wunderground v.1.15,2013-01-23 04:32:00,
2013-01-22 23:38:00,32.2,27.3,30.10,NNE,15,0.0,3.0,82,0.00,,,0.00,Wunderground v.1.15,2013-01-23 04:38:00,
2013-01-22 23:44:00,32.1,27.2,30.10,NNE,15,0.0,3.0,82,0.00,,,0.00,Wunderground v.1.15,2013-01-23 04:44:00,
2013-01-22 23:49:00,32.1,27.2,30.10,NNE,15,0.0,3.0,82,0.00,,,0.00,Wunderground v.1.15,2013-01-23 04:49:00,
2013-01-22 23:55:00,31.9,27.3,30.10,NNE,15,0.0,3.0,83,0.00,,,0.00,Wunderground v.1.15,2013-01-23 04:55:00,